Flag for Poland Weather past 2 weeks in Opole, Poland

Now
66 °F

Clear.


Feels Like: 66 °F
Forecast: 65 / 80 °F
Wind: 5 mph from South

Location: Wroclaw Ii

Current Time: Aug 28, 2015 at 5:03:30 AM

Latest Report: Aug 28, 2015 at 4:30 AM


Visibility: 10 mi

Pressure: 29.89 "Hg

Humidity: 83%

Dew point: 61 °F

Location of OpoleLocation

Historic Weather in Opole — Graph

°F

Opole temperature yesterday

Maximum temperature yesterday: 91 °F (at 3:00 PM)
Minimum temperature yesterday: 52 °F (at 6:00 AM)
Average temperature yesterday: 75 °F

Past Weeks' High & Low Weather Summary

 TemperatureHumidityPressure
High95 °F (Aug 14, 2:00 PM)100% (Aug 16, 5:30 AM)30.33 "Hg (Aug 16, 5:30 AM)
Low48 °F (Aug 20, 6:00 AM)20% (Aug 27, 3:00 PM)29.74 "Hg (Aug 15, 3:00 PM)
Average72 °F58%30.01 "Hg
* Reported Aug 13 4:00 AM — Aug 28 4:00 AM, Opole, Weather by CustomWeather, © 2015

Note: Actual official high and low records may vary slightly from our data, if they occured in-between our weather recording intervals... More about our weather records

Advertising

Opole weather history for previous 24 hours

 ConditionsComfort  
Time TempWeatherWind HumidityBarometerVisibility
4:00 AM
Fri, Aug 28
68 °FClear.3 mph83%29.89 "Hg10 mi
3:30 AM68 °FClear.6 mph83%29.89 "Hg10 mi
3:00 AM72 °FPassing clouds.6 mph73%29.89 "HgN/A
2:30 AM68 °FClear.6 mph83%29.89 "Hg10 mi
2:00 AM73 °FPassing clouds.6 mph69%29.89 "HgN/A
1:30 AM75 °FPassing clouds.5 mph61%29.89 "HgN/A
1:00 AM75 °FPassing clouds.6 mph61%29.89 "HgN/A
12:00 AM77 °FPassing clouds.8 mph57%29.92 "HgN/A
11:30 PM
Thu, Aug 27
77 °FPassing clouds.8 mph57%29.92 "HgN/A
11:00 PM77 °FPassing clouds.10 mph57%29.92 "HgN/A
10:30 PM79 °FClear.9 mph51%29.92 "Hg10 mi
10:00 PM77 °FPassing clouds.8 mph54%29.92 "HgN/A
9:30 PM79 °FPassing clouds.9 mph51%29.92 "HgN/A
9:00 PM81 °FPassing clouds.7 mph45%29.92 "HgN/A
8:30 PM81 °FPassing clouds.5 mph45%29.92 "HgN/A
8:00 PM82 °FPassing clouds.5 mph42%29.92 "HgN/A
7:30 PM84 °FPassing clouds.6 mph35%29.92 "HgN/A
7:00 PM86 °FPassing clouds.5 mph31%29.92 "HgN/A
6:30 PM88 °FPassing clouds.7 mph27%29.92 "HgN/A
6:00 PM90 °FPassing clouds.7 mph22%29.92 "HgN/A
5:30 PM90 °FPassing clouds.8 mph24%29.95 "HgN/A
5:00 PM90 °FPassing clouds.6 mph22%29.95 "HgN/A
4:30 PM90 °FPassing clouds.8 mph24%29.95 "HgN/A
4:00 PM90 °FPassing clouds.8 mph22%29.95 "HgN/A
3:30 PM90 °FPassing clouds.10 mph22%29.95 "HgN/A
3:00 PM91 °FSunny.7 mph20%29.95 "Hg10 mi
2:30 PM90 °FPassing clouds.5 mph22%29.95 "HgN/A
2:00 PM88 °FSunny.9 mph27%29.95 "Hg10 mi
1:30 PM90 °FPassing clouds.8 mph22%29.95 "HgN/A
1:00 PM88 °FPassing clouds.7 mph27%29.98 "HgN/A
12:30 PM86 °FPassing clouds.6 mph29%29.98 "HgN/A
12:00 PM84 °FPassing clouds.7 mph31%29.98 "HgN/A
11:30 AM84 °FPassing clouds.6 mph31%29.98 "HgN/A
11:00 AM82 °FPassing clouds.6 mph35%30.01 "HgN/A
10:30 AM81 °FPassing clouds.9 mph37%29.98 "HgN/A
10:00 AM79 °FPassing clouds.7 mph39%30.01 "HgN/A
9:30 AM75 °FPassing clouds.7 mph44%29.98 "HgN/A
9:00 AM72 °FPassing clouds.6 mph50%30.01 "HgN/A
8:30 AM68 °FSunny.8 mph56%30.01 "Hg10 mi
8:00 AM64 °FSunny.5 mph64%30.01 "Hg10 mi
7:30 AM61 °FSunny.5 mph68%30.01 "Hg10 mi
7:00 AM57 °FSunny.8 mph77%30.01 "Hg10 mi
6:30 AM55 °FClear.8 mph82%30.01 "Hg10 mi
6:00 AM52 °FClear.7 mph88%30.01 "Hg10 mi
5:30 AM54 °FClear.6 mph82%30.01 "Hg10 mi
5:00 AM54 °FClear.2 mph88%30.01 "Hg10 mi
Weather by CustomWeather, © 2015

See weather overviewHow to use our weather pages